SCP
0 0 0 0 0 0 0 0 0 0 0 0 0 0 0 0 1 1 1 0 0 0 0 0 0 0 0 0 0 0 0 0 0 0 0 0 0 0 0 0 0 -0 0
0 0 0 0 0 0 0 0 0 0 0 0 0 0 0 1 1 0 0 0 0 1 0 0 0 0 0 0 0 0 0 0 0 0 -0 0 0 0 -0 -0 0 -0 -0
1 0 0 0 0 0 0 0 0 0 0 0 0 0 1 1 1 1 0 0 1 0 1 0 0 0 0 0 0 0 0 0 0 0 0 -0 -0 -0 0 -0 -0 -0 -0
1 1 0 0 0 0 0 0 0 0 0 1 1 1 1 1 0 0 0 0 0 0 0 0 0 0 0 0 0 0 0 0 0 0 0 0 0 0 -0 -0 -0 -0 -0
1 1 2 1 0 0 1 0 0 0 0 0 1 1 1 1 0 0 0 0 0 0 0 0 0 0 0 0 0 0 0 0 0 0 0 0 0 -0 -0 0 0 -0 -0
3 2 3 1 1 1 1 0 0 0 0 0 1 1 0 0 0 0 0 0 0 0 0 0 0 0 0 0 0 0 0 0 0 0 0 0 -0 -0 -0 -0 -0 0 -0
5 6 3 2 1 1 1 0 1 0 1 1 1 1 0 0 0 0 0 0 0 0 0 0 0 0 0 0 0 0 -0 -0 -0 -0 0 0 0 -0 0 -0 -0 0 -0
5 3 2 2 1 1 1 1 1 0 1 1 1 0 0 0 0 0 0 0 0 0 0 0 0 0 0 0 0 0 -0 0 0 -0 -0 -0 -0 0 -0 -0 -0 0 -0
5 3 2 1 1 1 1 1 0 0 1 1 0 0 0 0 0 0 0 0 0 0 0 0 0 0 0 0 0 0 -0 0 0 0 0 0 0 0 -0 0 -0 -0 -0
4 3 2 1 2 1 1 1 1 1 1 0 0 0 0 0 0 0 0 0 0 0 0 0 0 0 0 0 0 0 -0 -0 0 -0 0 0 -0 0 0 0 -0 -0 -0
3 2 2 1 1 1 1 0 1 1 1 0 0 0 0 0 0 0 0 0 0 0 0 0 0 0 -0 0 0 -0 -0 -0 -0 -0 0 0 -0 -0 -0 -0 -0 -0 -0
2 2 1 1 1 1 1 1 1 1 1 0 0 0 0 0 0 0 0 0 0 0 0 0 0 0 0 0 0 0 -0 -0 0 0 0 -0 -0 -0 -0 -0 -0 -0 -0
2 1 1 1 1 1 1 1 1 0 0 0 0 0 0 0 0 0 0 0 0 0 0 0 0 0 -0 0 -0 -0 0 0 0 0 0 0 0 -0 -0 -0 -0 -0 -0
2 1 1 1 1 1 1 1 0 0 0 0 0 0 0 0 0 0 0 0 0 0 0 0 0 -0 -0 0 0 0 0 0 0 0 0 0 0 -0 -0 -0 -0 0 0
1 1 1 1 1 1 1 0 0 0 0 0 0 0 0 0 0 0 0 0 0 0 0 0 0 0 0 0 0 0 0 0 0 0 0 0 0 0 0 0 -0 0 -0
1 1 1 1 0 1 0 0 0 0 0 0 0 0 0 0 0 0 0 0 0 0 0 0 0 0 0 0 0 0 0 0 0 0 0 0 0 0 0 0 -0 0 -0
1 1 0 0 0 0 0 0 0 0 0 0 0 0 0 0 0 0 0 0 0 0 0 0 0 0 0 0 0 0 0 0 0 0 0 0 0 0 0 0 0 -0 -0
1 0 0 0 0 0 0 0 0 0 0 0 0 0 0 0 0 0 0 0 -0 0 0 0 0 0 0 0 0 0 0 0 0 0 0 0 0 0 0 0 0 0 0
0 0 0 0 0 0 0 0 0 0 0 0 0 0 0 0 0 0 0 -0 -0 -0 0 0 0 0 0 0 0 0 0 0 0 0 0 0 0 0 0 0 0 0 0
0 0 0 0 0 0 0 0 0 0 0 0 0 0 0 0 0 0 0 -0 -0 -0 0 0 0 0 0 0 0 0 0 0 0 0 0 0 0 0 0 0 0 0 0
0 0 0 0 0 0 0 0 0 0 0 0 0 0 0 0 0 0 -0 -0 -0 -0 0 0 0 0 0 0 0 0 0 0 0 0 0 0 0 0 0 0 0 0 0
0 0 0 0 0 0 0 0 0 0 0 0 0 0 0 0 0 0 0 -0 -0 -0 0 0 0 0 0 0 0 0 0 0 0 0 0 0 0 0 0 0 0 0 0
0 0 0 0 0 0 0 0 0 0 0 0 0 0 0 0 -0 0 0 -0 -0 0 0 0 0 0 0 0 0 0 0 0 0 0 0 0 0 0 0 0 0 0 -0
0 0 0 0 0 0 0 0 0 0 0 0 0 0 0 0 0 0 0 0 0 0 0 0 0 0 0 0 0 0 0 0 0 0 0 0 0 0 0 0 -0 0 0
0 0 0 0 0 0 0 0 0 0 0 0 0 0 0 0 -0 0 -0 0 0 0 -0 0 0 0 0 0 0 0 0 0 0 0 0 0 0 0 0 0 0 -0 0
0 0 0 0 0 0 0 0 0 0 0 0 0 0 0 0 -0 -0 -0 0 0 0 -0 0 0 0 0 0 0 0 0 0 0 0 0 0 0 0 0 0 0 -0 0
Wind_Speed_500mb
41 39 44 52 54 45 41 38 32 36 43 36 18 27 22 24 30 30 32 31 33 34 37 38 34 27 33 32 28 23 22 21 21 23 27 34 35 24 34 33 30 24 35
54 45 41 41 49 44 42 38 36 26 21 30 28 26 28 32 40 41 47 45 38 44 39 36 29 25 34 33 31 26 22 22 27 25 25 41 40 38 32 36 25 22 23
61 56 50 40 41 46 42 42 38 36 33 29 33 31 36 42 49 49 46 41 43 40 34 35 28 23 32 35 32 29 27 25 26 28 29 46 40 43 36 27 28 24 22
65 62 56 48 40 45 45 52 40 39 37 37 36 39 40 44 49 51 43 41 44 35 34 31 22 18 24 34 32 31 29 30 26 29 30 46 40 43 30 34 28 23 12
68 66 61 51 44 44 46 51 62 44 36 37 44 44 47 52 55 36 39 39 45 38 32 33 27 19 17 31 33 31 32 33 31 29 32 39 46 44 32 36 30 24 13
62 64 57 50 47 49 45 44 52 53 54 54 44 43 45 44 34 31 34 34 39 39 41 40 32 21 19 26 35 35 32 34 31 32 35 37 42 46 33 37 34 27 19
57 61 57 50 50 55 51 47 51 51 45 47 40 42 43 35 30 32 32 33 35 40 40 41 32 30 23 24 32 37 37 35 35 32 38 42 41 44 30 37 33 31 25
57 57 56 50 49 43 51 50 54 51 45 44 42 38 32 30 29 25 34 34 23 24 26 31 43 33 29 25 32 35 39 38 38 36 39 40 40 44 37 38 32 30 28
57 54 51 45 48 41 46 49 52 50 50 44 40 33 12 12 8 15 21 25 25 23 18 33 42 40 38 32 31 37 39 38 38 38 40 36 41 39 34 38 32 30 32
53 52 48 40 45 41 42 44 49 47 42 39 34 32 31 29 11 9 10 12 15 15 15 21 35 36 41 37 34 40 39 41 40 38 41 41 41 42 36 43 34 32 30
50 48 42 37 46 38 38 38 37 47 38 43 35 30 25 22 22 23 20 14 9 8 14 18 27 47 26 35 30 34 40 36 38 38 41 44 41 47 42 41 34 29 37
45 41 33 34 42 36 41 38 36 33 32 31 33 32 30 27 28 22 19 17 12 8 14 16 23 33 34 30 34 38 38 36 38 38 44 44 43 43 42 38 33 37 44
44 40 39 43 36 34 42 35 36 32 31 30 30 28 28 25 22 21 18 18 14 10 15 20 22 31 35 36 34 34 33 32 37 36 41 45 45 43 40 36 38 44 43
46 37 40 37 36 36 39 36 34 29 29 28 28 29 28 25 28 29 24 19 15 10 15 17 25 32 31 35 33 27 27 31 33 35 41 46 43 41 40 39 43 43 37
36 41 41 42 40 37 37 33 27 27 25 26 24 25 27 27 28 24 19 21 21 12 11 15 21 26 35 38 40 36 25 28 32 36 42 45 44 41 43 42 45 39 35
35 40 45 46 40 35 35 30 28 23 20 21 22 21 22 22 21 22 22 20 15 18 13 11 21 33 33 36 42 34 30 27 33 36 44 44 41 38 41 39 40 37 30
42 43 44 43 39 37 34 28 23 20 15 16 16 18 21 17 20 21 23 26 15 12 16 15 21 31 34 39 43 34 32 31 34 39 42 45 44 39 36 38 39 35 30
45 41 40 38 31 27 25 22 19 20 16 11 13 15 15 15 15 14 17 25 23 16 17 15 24 36 33 36 34 33 38 35 37 40 39 38 41 42 39 42 39 37 36
44 34 33 33 34 26 24 16 25 16 25 18 15 11 15 15 15 17 16 27 24 21 18 21 32 36 40 40 41 35 39 35 37 43 44 39 42 43 41 39 38 37 38
39 37 34 32 31 26 23 25 23 20 21 20 14 15 11 11 13 20 21 29 24 25 22 30 35 39 41 44 42 45 43 39 41 44 41 45 46 43 41 37 39 38 35
37 31 35 33 28 27 27 25 22 25 25 21 19 14 7 10 17 17 17 22 19 23 29 35 36 43 47 47 48 49 45 48 44 46 51 46 48 46 41 39 37 39 34
34 35 34 31 34 34 30 26 28 26 22 19 19 13 7 8 19 20 20 21 24 28 32 34 32 48 52 50 51 49 46 54 50 50 47 54 52 48 35 37 35 37 29
37 36 32 33 32 27 26 28 27 19 21 21 18 10 5 11 15 23 23 22 26 21 16 19 31 47 50 53 54 51 45 60 63 60 53 56 51 36 33 35 41 35 34
33 34 36 34 31 28 24 25 25 19 24 22 16 12 11 13 18 22 22 29 35 33 27 22 16 35 42 46 42 51 48 57 58 56 53 54 51 43 35 42 40 35 36
39 37 37 31 30 26 25 21 21 22 24 22 22 17 16 14 16 22 24 29 32 31 24 21 19 27 39 42 40 44 52 61 62 58 56 54 49 41 43 39 33 34 36
37 36 34 28 27 30 27 23 21 23 24 21 23 19 20 17 19 21 19 28 30 27 24 26 29 35 33 39 36 35 50 59 70 58 59 58 56 50 39 39 35 33 36
Wind_Direction_500mb
281 275 263 258 259 253 250 247 263 270 260 247 243 232 246 254 260 264 272 266 269 290 286 294 297 263 238 226 225 217 215 217 213 206 206 211 194 243 201 216 215 223 210
287 279 271 257 253 251 257 256 255 267 273 244 242 251 247 253 258 266 272 268 267 270 278 275 274 267 239 228 225 221 208 210 210 205 205 185 203 208 193 210 211 208 206
280 278 270 262 251 246 247 256 253 254 260 251 251 255 251 257 264 270 271 269 260 265 271 268 268 262 239 227 224 219 211 212 214 207 205 197 197 195 192 210 201 199 213
270 269 265 261 261 236 238 248 254 254 250 242 248 248 257 263 269 274 266 264 261 260 260 260 271 257 242 227 221 219 208 212 215 208 209 200 194 195 202 196 184 191 222
258 259 259 261 261 241 233 238 243 247 234 229 238 251 262 270 273 258 259 260 257 254 265 259 252 253 242 221 220 220 210 210 217 212 208 203 203 193 183 186 182 170 186
257 256 253 255 254 242 240 236 238 240 246 250 253 259 263 273 267 265 274 273 262 264 268 261 237 238 236 226 220 218 211 211 216 214 207 194 196 195 190 194 194 192 199
253 252 253 252 248 238 233 236 239 240 238 242 244 250 262 265 276 274 273 273 264 261 258 249 237 234 228 231 222 218 216 214 217 214 209 202 197 195 194 193 198 202 209
250 247 249 248 252 229 227 234 233 235 235 235 240 259 260 270 260 265 260 265 266 268 259 247 236 237 227 231 230 221 217 217 219 216 211 202 195 193 200 195 195 192 199
244 250 251 249 236 225 231 234 234 233 235 235 244 230 230 236 267 270 270 271 278 278 260 234 231 227 218 224 224 222 217 214 216 216 208 201 188 183 188 190 192 195 197
241 243 248 239 214 222 232 235 230 228 231 230 222 233 248 257 266 278 277 270 263 256 253 242 231 215 232 228 222 226 217 209 216 211 201 192 187 178 179 186 193 198 197
240 245 245 220 210 221 230 221 227 232 229 225 230 246 243 234 247 264 276 263 265 239 237 242 234 223 231 220 218 215 202 208 212 203 197 190 186 181 182 186 191 192 180
234 233 217 224 203 215 218 224 226 220 229 228 237 242 230 226 247 254 261 266 279 244 240 244 225 215 213 218 204 205 205 211 209 202 194 188 187 184 183 186 188 172 168
227 215 209 202 208 208 208 216 218 227 228 237 240 237 229 237 238 255 258 262 254 240 230 227 214 211 213 205 195 202 200 205 203 198 188 184 184 180 183 180 174 162 171
229 219 205 197 205 206 207 212 223 230 235 235 238 231 226 226 238 252 257 247 230 215 216 226 216 205 197 194 188 180 187 188 198 192 185 181 181 187 179 176 166 171 178
219 207 194 196 202 206 215 230 236 236 234 236 226 227 234 236 242 252 257 230 219 204 188 204 203 197 201 196 195 181 182 181 186 189 183 179 186 190 178 170 173 175 170
201 189 191 194 200 202 216 227 228 225 219 213 221 227 228 239 243 240 233 218 227 222 188 201 194 192 198 192 203 197 176 185 184 187 184 182 186 190 183 177 178 173 169
188 182 188 192 198 212 224 222 217 195 195 212 212 229 229 243 244 242 227 210 205 188 185 176 182 184 183 187 181 184 190 192 185 181 181 181 181 191 180 174 175 174 172
181 179 188 196 201 212 216 215 207 189 195 224 240 238 241 267 241 227 208 198 200 192 184 180 172 172 179 180 180 172 186 187 186 175 178 179 187 181 170 173 182 178 177
174 179 177 186 198 212 211 220 193 210 198 241 257 250 256 249 246 219 205 191 194 198 195 193 177 174 170 176 167 175 176 177 175 174 175 186 180 173 173 180 183 183 183
175 170 182 196 204 199 195 184 185 206 215 229 259 265 240 244 223 219 208 194 206 215 209 187 184 175 170 170 172 178 174 176 173 172 173 172 172 172 176 185 186 186 188
171 179 191 193 198 187 192 190 195 214 222 232 242 232 249 251 207 199 184 182 203 204 211 186 187 178 178 179 182 183 178 176 166 169 167 171 174 174 183 183 185 192 196
173 177 177 179 179 180 190 187 206 214 224 234 221 214 290 237 202 200 184 189 187 198 196 192 197 180 179 178 182 184 181 168 158 174 172 177 180 180 191 186 193 198 202
174 183 190 190 181 188 202 201 211 222 224 208 210 193 143 125 165 172 176 172 172 183 198 208 209 185 181 181 184 184 190 174 171 176 179 175 186 185 190 185 195 200 201
183 192 184 185 190 192 193 205 220 214 187 197 187 176 161 145 159 167 174 172 175 182 196 210 208 199 185 182 193 186 188 186 175 178 181 180 183 195 189 193 199 204 204
184 185 189 193 194 199 192 191 191 191 188 185 179 189 169 150 161 173 181 175 172 171 168 175 181 179 180 187 192 191 188 181 176 182 189 189 190 193 193 201 205 207 207
191 192 195 201 191 188 186 187 182 181 177 182 187 190 177 173 169 189 194 192 188 182 178 168 160 162 177 189 188 196 193 189 185 186 198 197 191 189 197 206 205 211 216
Wind_Speed_850mb
41 39 44 52 54 45 41 38 32 36 43 36 18 27 22 24 30 30 32 31 33 34 37 38 34 27 33 32 28 23 22 21 21 23 27 34 35 24 34 33 30 24 35
54 45 41 41 49 44 42 38 36 26 21 30 28 26 28 32 40 41 47 45 38 44 39 36 29 25 34 33 31 26 22 22 27 25 25 41 40 38 32 36 25 22 23
61 56 50 40 41 46 42 42 38 36 33 29 33 31 36 42 49 49 46 41 43 40 34 35 28 23 32 35 32 29 27 25 26 28 29 46 40 43 36 27 28 24 22
65 62 56 48 40 45 45 52 40 39 37 37 36 39 40 44 49 51 43 41 44 35 34 31 22 18 24 34 32 31 29 30 26 29 30 46 40 43 30 34 28 23 12
68 66 61 51 44 44 46 51 62 44 36 37 44 44 47 52 55 36 39 39 45 38 32 33 27 19 17 31 33 31 32 33 31 29 32 39 46 44 32 36 30 24 13
62 64 57 50 47 49 45 44 52 53 54 54 44 43 45 44 34 31 34 34 39 39 41 40 32 21 19 26 35 35 32 34 31 32 35 37 42 46 33 37 34 27 19
57 61 57 50 50 55 51 47 51 51 45 47 40 42 43 35 30 32 32 33 35 40 40 41 32 30 23 24 32 37 37 35 35 32 38 42 41 44 30 37 33 31 25
57 57 56 50 49 43 51 50 54 51 45 44 42 38 32 30 29 25 34 34 23 24 26 31 43 33 29 25 32 35 39 38 38 36 39 40 40 44 37 38 32 30 28
57 54 51 45 48 41 46 49 52 50 50 44 40 33 12 12 8 15 21 25 25 23 18 33 42 40 38 32 31 37 39 38 38 38 40 36 41 39 34 38 32 30 32
53 52 48 40 45 41 42 44 49 47 42 39 34 32 31 29 11 9 10 12 15 15 15 21 35 36 41 37 34 40 39 41 40 38 41 41 41 42 36 43 34 32 30
50 48 42 37 46 38 38 38 37 47 38 43 35 30 25 22 22 23 20 14 9 8 14 18 27 47 26 35 30 34 40 36 38 38 41 44 41 47 42 41 34 29 37
45 41 33 34 42 36 41 38 36 33 32 31 33 32 30 27 28 22 19 17 12 8 14 16 23 33 34 30 34 38 38 36 38 38 44 44 43 43 42 38 33 37 44
44 40 39 43 36 34 42 35 36 32 31 30 30 28 28 25 22 21 18 18 14 10 15 20 22 31 35 36 34 34 33 32 37 36 41 45 45 43 40 36 38 44 43
46 37 40 37 36 36 39 36 34 29 29 28 28 29 28 25 28 29 24 19 15 10 15 17 25 32 31 35 33 27 27 31 33 35 41 46 43 41 40 39 43 43 37
36 41 41 42 40 37 37 33 27 27 25 26 24 25 27 27 28 24 19 21 21 12 11 15 21 26 35 38 40 36 25 28 32 36 42 45 44 41 43 42 45 39 35
35 40 45 46 40 35 35 30 28 23 20 21 22 21 22 22 21 22 22 20 15 18 13 11 21 33 33 36 42 34 30 27 33 36 44 44 41 38 41 39 40 37 30
42 43 44 43 39 37 34 28 23 20 15 16 16 18 21 17 20 21 23 26 15 12 16 15 21 31 34 39 43 34 32 31 34 39 42 45 44 39 36 38 39 35 30
45 41 40 38 31 27 25 22 19 20 16 11 13 15 15 15 15 14 17 25 23 16 17 15 24 36 33 36 34 33 38 35 37 40 39 38 41 42 39 42 39 37 36
44 34 33 33 34 26 24 16 25 16 25 18 15 11 15 15 15 17 16 27 24 21 18 21 32 36 40 40 41 35 39 35 37 43 44 39 42 43 41 39 38 37 38
39 37 34 32 31 26 23 25 23 20 21 20 14 15 11 11 13 20 21 29 24 25 22 30 35 39 41 44 42 45 43 39 41 44 41 45 46 43 41 37 39 38 35
37 31 35 33 28 27 27 25 22 25 25 21 19 14 7 10 17 17 17 22 19 23 29 35 36 43 47 47 48 49 45 48 44 46 51 46 48 46 41 39 37 39 34
34 35 34 31 34 34 30 26 28 26 22 19 19 13 7 8 19 20 20 21 24 28 32 34 32 48 52 50 51 49 46 54 50 50 47 54 52 48 35 37 35 37 29
37 36 32 33 32 27 26 28 27 19 21 21 18 10 5 11 15 23 23 22 26 21 16 19 31 47 50 53 54 51 45 60 63 60 53 56 51 36 33 35 41 35 34
33 34 36 34 31 28 24 25 25 19 24 22 16 12 11 13 18 22 22 29 35 33 27 22 16 35 42 46 42 51 48 57 58 56 53 54 51 43 35 42 40 35 36
39 37 37 31 30 26 25 21 21 22 24 22 22 17 16 14 16 22 24 29 32 31 24 21 19 27 39 42 40 44 52 61 62 58 56 54 49 41 43 39 33 34 36
37 36 34 28 27 30 27 23 21 23 24 21 23 19 20 17 19 21 19 28 30 27 24 26 29 35 33 39 36 35 50 59 70 58 59 58 56 50 39 39 35 33 36
Wind_Direction_850mb
281 275 263 258 259 253 250 247 263 270 260 247 243 232 246 254 260 264 272 266 269 290 286 294 297 263 238 226 225 217 215 217 213 206 206 211 194 243 201 216 215 223 210
287 279 271 257 253 251 257 256 255 267 273 244 242 251 247 253 258 266 272 268 267 270 278 275 274 267 239 228 225 221 208 210 210 205 205 185 203 208 193 210 211 208 206
280 278 270 262 251 246 247 256 253 254 260 251 251 255 251 257 264 270 271 269 260 265 271 268 268 262 239 227 224 219 211 212 214 207 205 197 197 195 192 210 201 199 213
270 269 265 261 261 236 238 248 254 254 250 242 248 248 257 263 269 274 266 264 261 260 260 260 271 257 242 227 221 219 208 212 215 208 209 200 194 195 202 196 184 191 222
258 259 259 261 261 241 233 238 243 247 234 229 238 251 262 270 273 258 259 260 257 254 265 259 252 253 242 221 220 220 210 210 217 212 208 203 203 193 183 186 182 170 186
257 256 253 255 254 242 240 236 238 240 246 250 253 259 263 273 267 265 274 273 262 264 268 261 237 238 236 226 220 218 211 211 216 214 207 194 196 195 190 194 194 192 199
253 252 253 252 248 238 233 236 239 240 238 242 244 250 262 265 276 274 273 273 264 261 258 249 237 234 228 231 222 218 216 214 217 214 209 202 197 195 194 193 198 202 209
250 247 249 248 252 229 227 234 233 235 235 235 240 259 260 270 260 265 260 265 266 268 259 247 236 237 227 231 230 221 217 217 219 216 211 202 195 193 200 195 195 192 199
244 250 251 249 236 225 231 234 234 233 235 235 244 230 230 236 267 270 270 271 278 278 260 234 231 227 218 224 224 222 217 214 216 216 208 201 188 183 188 190 192 195 197
241 243 248 239 214 222 232 235 230 228 231 230 222 233 248 257 266 278 277 270 263 256 253 242 231 215 232 228 222 226 217 209 216 211 201 192 187 178 179 186 193 198 197
240 245 245 220 210 221 230 221 227 232 229 225 230 246 243 234 247 264 276 263 265 239 237 242 234 223 231 220 218 215 202 208 212 203 197 190 186 181 182 186 191 192 180
234 233 217 224 203 215 218 224 226 220 229 228 237 242 230 226 247 254 261 266 279 244 240 244 225 215 213 218 204 205 205 211 209 202 194 188 187 184 183 186 188 172 168
227 215 209 202 208 208 208 216 218 227 228 237 240 237 229 237 238 255 258 262 254 240 230 227 214 211 213 205 195 202 200 205 203 198 188 184 184 180 183 180 174 162 171
229 219 205 197 205 206 207 212 223 230 235 235 238 231 226 226 238 252 257 247 230 215 216 226 216 205 197 194 188 180 187 188 198 192 185 181 181 187 179 176 166 171 178
219 207 194 196 202 206 215 230 236 236 234 236 226 227 234 236 242 252 257 230 219 204 188 204 203 197 201 196 195 181 182 181 186 189 183 179 186 190 178 170 173 175 170
201 189 191 194 200 202 216 227 228 225 219 213 221 227 228 239 243 240 233 218 227 222 188 201 194 192 198 192 203 197 176 185 184 187 184 182 186 190 183 177 178 173 169
188 182 188 192 198 212 224 222 217 195 195 212 212 229 229 243 244 242 227 210 205 188 185 176 182 184 183 187 181 184 190 192 185 181 181 181 181 191 180 174 175 174 172
181 179 188 196 201 212 216 215 207 189 195 224 240 238 241 267 241 227 208 198 200 192 184 180 172 172 179 180 180 172 186 187 186 175 178 179 187 181 170 173 182 178 177
174 179 177 186 198 212 211 220 193 210 198 241 257 250 256 249 246 219 205 191 194 198 195 193 177 174 170 176 167 175 176 177 175 174 175 186 180 173 173 180 183 183 183
175 170 182 196 204 199 195 184 185 206 215 229 259 265 240 244 223 219 208 194 206 215 209 187 184 175 170 170 172 178 174 176 173 172 173 172 172 172 176 185 186 186 188
171 179 191 193 198 187 192 190 195 214 222 232 242 232 249 251 207 199 184 182 203 204 211 186 187 178 178 179 182 183 178 176 166 169 167 171 174 174 183 183 185 192 196
173 177 177 179 179 180 190 187 206 214 224 234 221 214 290 237 202 200 184 189 187 198 196 192 197 180 179 178 182 184 181 168 158 174 172 177 180 180 191 186 193 198 202
174 183 190 190 181 188 202 201 211 222 224 208 210 193 143 125 165 172 176 172 172 183 198 208 209 185 181 181 184 184 190 174 171 176 179 175 186 185 190 185 195 200 201
183 192 184 185 190 192 193 205 220 214 187 197 187 176 161 145 159 167 174 172 175 182 196 210 208 199 185 182 193 186 188 186 175 178 181 180 183 195 189 193 199 204 204
184 185 189 193 194 199 192 191 191 191 188 185 179 189 169 150 161 173 181 175 172 171 168 175 181 179 180 187 192 191 188 181 176 182 189 189 190 193 193 201 205 207 207
191 192 195 201 191 188 186 187 182 181 177 182 187 190 177 173 169 189 194 192 188 182 178 168 160 162 177 189 188 196 193 189 185 186 198 197 191 189 197 206 205 211 216